Retour au catalogue

CZ-6A DEB

ActifPO
NORAD 60628·DEBRIS·🇨🇳 China

Lancé Aug 6, 2024 depuis Taiyuan Satellite Launch Center

Loading…

Prochains Passages (prochaines 24 heures)

TLE

FraisSource: Space-Track

Époque: Sep 14, 2026, 22:24 UTC

1 60628U 24140AD  26257.93346913  .00000399  00000-0  14994-3 0  9994
2 60628  88.8334 248.1038 0003393 326.1303  33.9675 14.29693777109693

Suivez CZ-6A DEB en temps réel avec AllMySat

Download on the App Store